星链-1622 (STARLINK-1622 )

导读

STARLINK-1622是美国SpaceX星链星座的卫星,于北京时间2020年8月18日发射入轨,属于星链低轨互联网卫星网络组成部分,服务全球卫星互联网接入服务,运行在近地轨道,承担着为偏远地区、移动场景提供宽带通信的任务,是星链大规模组网进程中的一颗典型卫星。

基本信息
目录编号:
46128
目录名称:
STARLINK-1622
国际标识:
2020-057M
轨道中心:
EARTH
卫星名称:
星链-1622
卫星全名:
星链-1622 (STARLINK-1622 )
卫星状态:
在轨 (已飞行2130 天)
发射日期:
2020-08-18 UTC
国别 :
美国 (US)
星等 :
--
轨道信息
数据来源 国际轨道数据
星历时间: 2026-06-19T00:00:04+0800
4小时前
查看轨道信息
半长轴: 6682.334km
偏心率: 0.0004847
轨道倾角: 53.013°
近地点辐角 131.881°
升交点赤经 81.094°
平近点角 186.128°
近地点: 300.958km
远地点: 307.436km
周期: 90.605分钟
每日圈数: 15.893169
详细信息
固有亮度:
5
最大亮度:
2.5
卫星平台:
Starlink V1.0
覆盖范围:
全球
运营商:
太空探索技术公司
运营商所在国:
美国
制造商(研发单位):
太空探索技术公司
制造商所在国:
美国
使用方式:
暂无
卫星简介
星链(Starlink)计划是由太空探索技术公司(SpaceX)提出的一个巨型低轨卫星互联网星座项目,计划在2019年至2024年间在太空搭建由约1.2万颗卫星组成的“星链”网络,其中1584颗将部署在地球上空550千米处的近地轨道,并从2020年开始工作。该卫星仍在工作。
2D轨道图
3D轨道图
轨道高度分析图
轨道倾角分析图
轨道综合分析图
查看轨道综合分析图